This is the latest recevied weather packets stored in our database for station/object DB0BGL. If no packets are shown the sender has not sent any weather packets the latest 10 day(s).
| Time | Temp. | Humidity | Pressure | Rain* | Wind** | Luminosity | Snow |
|---|---|---|---|---|---|---|---|
| 1777632442 | 7.78° C | 44% | 0 hPa | 0 mm | - | - | - |
| 1777631841 | 7.78° C | 100% | 0 hPa | 0 mm | - | - | - |
| 1777631241 | 8.33° C | 42% | 0 hPa | 0 mm | - | - | - |
| 1777630640 | 8.89° C | 40% | 0 hPa | 0 mm | - | - | - |
| 1777630040 | 9.44° C | 39% | 0 hPa | 0 mm | - | - | - |
| 1777629439 | 10.56° C | 36% | 0 hPa | 0 mm | - | - | - |
| 1777628839 | 11.67° C | 32% | 0 hPa | 0 mm | - | - | - |
| 1777628238 | 12.22° C | 30% | 0 hPa | 0 mm | - | - | - |
| 1777627637 | 11.67° C | 100% | 0 hPa | 0 mm | - | - | - |
| 1777627037 | 10.56° C | 31% | 0 hPa | 0 mm | - | - | - |
| 1777626436 | 11.11° C | 32% | 0 hPa | 0 mm | - | - | - |
| 1777625836 | 11.67° C | 30% | 0 hPa | 0 mm | - | - | - |
| 1777625235 | 11.67° C | 30% | 0 hPa | 0 mm | - | - | - |
| 1777624635 | 11.67° C | 29% | 0 hPa | 0 mm | - | - | - |
| 1777624034 | 12.22° C | 29% | 0 hPa | 0 mm | - | - | - |
| 1777623469 | 12.22° C | 28% | 0 hPa | 0 mm | - | - | - |
| 1777623434 | 12.22° C | 28% | 0 hPa | 0 mm | - | - | - |
| 1777622833 | 11.67° C | 32% | 0 hPa | 0 mm | - | - | - |
| 1777622232 | 11.67° C | 33% | 0 hPa | 0 mm | - | - | - |
| 1777621632 | 10.56° C | 34% | 0 hPa | 0 mm | - | - | - |
| 1777621031 | 9.44° C | 38% | 0 hPa | 0 mm | - | - | - |
| 1777620430 | 8.33° C | 39% | 0 hPa | 0 mm | - | - | - |
| 1777619832 | 9.44° C | 36% | 0 hPa | 0 mm | - | - | - |
| 1777619229 | 11.11° C | 33% | 0 hPa | 0 mm | - | - | - |
| 1777618629 | 11.67° C | 31% | 0 hPa | 0 mm | - | - | - |
* Rain latest hour (hover to see other rain measurements)
** Current wind speed in m/s (hover to see current wind gust speed)